Estación municipal de Cànoves i Samalús (Vallès Oriental, P.N.del Montseny)

Consulta los datos en tiempo real de la estación municipal de Cànoves i Samalús





Hora UTC 03:55
Temperatura 19.9 ºC
Humedad 83.1 %
Presión 1019.3 hPa
Pluja 0.0 mm
Velocidad viento 1.7 km/h
Dirección viento NNW
Radiación solar 0.1 W/m²

Webcam

Datos diarios 2026-09-02



Hora UTC (invierno +1h; verano +2h)
Temperatura (ºC) Humedad (%) Presión (hPa) Velocidad viento (km/h) Precipitación (mm) Radiación solar (W/m²)
Hora UTC Aire Humedad Presión Vel. Dir. Vel. Max Dir. Intent. máx 5 min. Rad. Sol.
00:05 19.6 87.9 1020.0 2.8 NNW 2.8 NNW 0.0 0.1
00:10 19.6 88.2 1020.0 2.6 NNW 3.9 N 0.0 0.1
00:15 19.6 88.2 1020.0 2.7 NNW 3.9 N 0.0 0.1
00:20 19.5 88.4 1020.0 3.0 NNW 4.2 NNW 0.0 0.1
00:25 19.5 88.7 1019.9 2.7 NNW 4.2 NNW 0.0 0.1
00:30 19.6 89.0 1020.0 1.3 NNW 2.8 NNW 0.0 0.1
00:35 19.5 89.0 1019.9 2.2 NNW 3.5 NNW 0.0 0.1
00:40 19.4 88.8 1019.9 3.8 NNW 4.9 NNW 0.0 0.1
00:45 19.4 89.4 1019.9 3.2 NW 4.2 NNW 0.0 0.1
00:50 19.4 89.8 1019.9 3.6 NNW 4.9 NNW 0.0 0.1
00:55 19.4 89.8 1019.9 4.0 NNW 4.6 NNW 0.0 0.1
01:00 19.4 90.2 1020.0 3.0 NNW 4.6 NNW 0.0 0.1
01:05 19.5 90.4 1019.9 2.9 NW 3.9 NNW 0.0 0.1
01:10 19.4 90.3 1019.9 3.7 NNW 5.3 NNW 0.0 0.1
01:15 19.4 90.3 1019.8 3.3 NNW 4.9 N 0.0 0.1
01:20 19.3 90.2 1019.7 2.8 N 5.3 N 0.0 0.1
01:25 19.2 90.3 1019.6 1.8 NNW 3.5 NNW 0.0 0.1
01:30 19.2 90.6 1019.6 2.4 NNW 3.2 NNW 0.0 0.1
01:35 19.3 91.0 1019.6 0.8 WNW 2.1 WNW 0.0 0.1
01:40 19.3 91.0 1019.5 0.6 NW 2.1 NNW 0.0 0.1
01:45 19.3 91.1 1019.5 1.1 WNW 2.5 WNW 0.0 0.1
01:50 19.3 91.3 1019.5 2.4 NW 3.5 NW 0.0 0.1
01:55 19.3 91.3 1019.5 3.4 NW 4.2 WNW 0.0 0.1
02:00 19.3 91.4 1019.4 2.8 NNW 4.2 NNW 0.0 0.1
02:05 19.4 91.4 1019.5 2.8 NW 4.2 NNW 0.0 0.1
02:10 19.3 91.2 1019.5 3.2 NW 4.2 NNW 0.0 0.1
02:15 19.4 91.2 1019.5 2.8 NW 3.9 WNW 0.0 0.1
02:20 19.3 90.9 1019.5 4.0 NNW 4.9 NNW 0.0 0.1
02:25 19.3 91.0 1019.6 4.0 NNW 5.3 NNW 0.0 0.1
02:30 19.3 90.8 1019.5 2.4 NW 3.9 NNW 0.0 0.1
02:35 19.2 90.9 1019.4 3.1 NNW 5.3 NNW 0.0 0.1
02:40 19.2 90.8 1019.4 4.3 NW 6.4 NW 0.0 0.1
02:45 19.2 90.5 1019.4 4.1 NW 7.1 NNW 0.0 0.1
02:50 19.2 90.1 1019.3 4.2 NW 8.8 NNW 0.0 0.1
02:55 19.3 89.8 1019.3 4.2 NW 9.5 N 0.0 0.1
03:00 19.4 89.2 1019.3 5.4 NW 10.9 NNW 0.0 0.1
03:05 19.6 87.9 1019.3 4.8 NW 8.8 NW 0.0 0.1
03:10 19.8 86.9 1019.3 6.0 NW 9.9 NW 0.0 0.1
03:15 20.0 85.9 1019.3 6.6 NW 10.6 WNW 0.0 0.1
03:20 20.3 84.1 1019.4 5.9 WNW 9.9 NW 0.0 0.1
03:25 20.5 82.6 1019.4 4.6 NW 8.8 WNW 0.0 0.1
03:30 20.5 81.6 1019.3 1.0 SSE 3.5 S 0.0 0.1
03:35 20.4 82.0 1019.3 2.9 SSE 4.6 S 0.0 0.1
03:40 20.1 82.2 1019.3 1.6 NNE 3.2 ENE 0.0 0.1
03:45 19.9 82.9 1019.3 3.3 NW 8.1 NNW 0.0 0.1
03:50 19.9 83.3 1019.2 3.1 WNW 13.8 NNW 0.0 0.1
03:55 19.9 83.1 1019.3 1.7 NNW 7.8 N 0.0 0.1
Máxima 20.5 91.4 1020.0 6.6 NW 13.8 NNW 0.0 0.1
Mínima 19.2 81.6 1019.2
Total 0.0